SCP
0 0 0 0 0 0 0 0 0 0 0 0 0 0 0 0 0 0 0 0 0 0 0 0 0 0 0 0 0 0 0 0 0 0 0 0 0 0 0 0 0 0 0
0 0 0 0 0 0 0 0 0 0 0 0 0 0 0 0 0 0 0 0 0 0 0 0 0 0 0 0 0 0 0 0 0 0 0 0 0 0 0 0 0 0 0
0 0 0 0 0 0 0 0 0 0 0 0 0 0 0 0 0 0 0 0 0 0 0 0 0 0 0 0 0 0 0 0 0 0 0 0 0 0 0 0 0 0 0
0 0 0 0 0 0 0 0 0 0 0 0 0 0 0 0 0 0 0 0 0 0 0 0 0 0 0 0 0 0 0 0 0 0 0 0 0 0 0 0 0 0 0
0 0 0 0 0 0 0 0 0 0 0 0 0 0 0 0 0 0 0 0 0 0 0 0 0 0 0 0 0 0 0 0 0 0 0 0 0 0 0 0 0 0 0
0 0 0 0 0 0 0 0 0 0 0 0 0 0 0 0 0 0 0 0 0 0 0 0 0 0 0 0 0 0 0 0 0 0 0 0 0 0 0 0 0 0 0
0 0 0 0 0 0 0 0 0 0 0 0 0 0 0 0 0 0 0 0 0 0 0 0 0 0 0 0 0 0 0 0 0 0 0 0 0 0 0 0 0 0 0
0 0 0 0 0 0 0 0 0 0 0 0 0 0 0 0 0 0 0 0 0 0 0 0 0 0 0 0 0 0 0 0 0 0 0 0 0 0 0 0 0 0 0
0 0 0 0 0 0 0 0 0 0 0 0 0 0 0 0 0 0 0 0 0 0 0 0 0 0 0 0 0 0 0 0 0 0 0 0 0 0 0 0 0 0 0
0 0 0 0 0 0 0 0 0 0 0 0 0 0 0 0 0 0 0 0 0 0 0 0 0 0 0 0 0 0 0 0 0 0 0 0 0 0 0 0 0 0 0
0 0 0 0 0 0 0 0 0 0 0 0 0 0 0 0 0 0 0 0 0 0 0 0 0 0 0 0 0 0 0 0 0 0 0 0 0 0 0 0 0 0 0
0 0 0 0 0 0 0 0 0 0 0 0 0 0 0 0 0 0 0 0 0 0 0 0 0 0 0 0 0 0 0 0 0 0 0 0 0 0 0 0 0 0 0
0 0 0 0 0 0 0 0 0 0 0 0 0 0 0 0 0 0 0 0 0 0 0 0 0 0 0 0 0 0 0 0 0 0 0 0 0 0 0 0 0 0 0
0 0 0 0 0 0 0 0 0 0 0 0 0 0 0 0 0 0 0 0 0 0 0 0 0 0 0 0 0 0 0 0 0 0 0 0 0 0 0 0 0 0 0
0 0 0 0 0 0 0 0 0 0 0 0 0 0 0 0 0 0 0 0 0 0 0 0 0 0 0 0 0 0 0 0 0 0 0 0 0 0 0 0 0 0 0
0 0 0 0 0 0 0 0 0 0 0 0 0 0 0 0 0 0 0 0 0 0 0 0 0 0 0 0 0 0 0 0 0 0 0 0 0 0 0 0 0 0 0
0 0 0 0 0 0 0 0 0 0 0 0 0 0 0 0 0 0 0 0 0 0 0 0 0 0 0 0 0 0 0 0 0 0 0 0 0 0 0 0 0 0 0
0 0 0 0 0 0 0 0 0 0 0 0 0 0 0 0 0 0 0 0 0 0 0 0 0 0 0 0 0 0 0 0 0 0 0 0 0 0 0 0 0 0 0
0 0 0 0 0 0 0 0 0 0 0 0 0 0 0 0 0 0 0 0 0 0 0 0 0 0 0 0 0 0 0 0 0 0 0 0 0 0 0 0 0 0 0
0 0 0 0 0 0 0 0 0 0 0 0 0 0 0 0 0 0 0 0 0 0 0 0 0 0 0 0 0 0 0 0 0 0 0 0 0 0 0 0 0 0 0
0 0 0 0 0 0 0 0 0 0 0 0 0 0 0 0 0 0 0 0 0 0 0 0 0 0 0 0 0 0 0 0 0 0 0 0 0 0 0 0 0 0 0
0 0 0 0 0 0 0 0 0 0 0 0 0 0 0 0 0 0 0 0 0 0 0 0 0 0 0 0 0 0 0 0 0 0 0 0 0 0 0 0 0 0 0
0 0 0 0 0 0 0 0 0 0 0 0 0 0 0 0 0 0 0 0 0 0 0 0 0 0 0 0 0 0 0 0 0 0 0 0 0 0 0 0 0 0 0
0 0 0 0 0 0 0 0 0 0 0 0 0 0 0 0 0 0 0 0 0 0 0 0 0 0 0 0 0 0 0 0 0 0 0 0 0 0 0 0 0 0 0
0 0 0 0 0 0 0 0 0 0 0 0 0 0 0 0 0 0 0 0 0 0 0 0 0 0 0 0 0 0 0 0 0 0 0 0 0 0 0 0 0 0 0
0 0 0 0 0 0 0 0 0 0 0 0 0 0 0 0 0 0 0 0 0 0 0 0 0 0 0 0 0 0 0 0 0 0 0 0 0 0 0 0 0 0 0
Wind_Speed
7 7 6 6 5 4 4 3 3 2 2 2 3 3 4 4 5 5 6 7 8 9 9 10 12 11 9 9 9 9 10 11 16 14 8 7 9 10 10 10 11 12 12
6 6 7 6 5 5 4 4 3 3 3 3 3 3 4 4 5 5 7 7 8 10 10 10 12 9 11 9 9 10 11 11 13 18 12 7 9 9 9 10 10 10 11
6 6 7 6 6 5 5 4 4 3 3 3 3 3 4 5 5 5 7 8 8 10 10 11 12 11 11 9 10 10 9 9 11 13 14 8 7 5 7 7 10 10 11
6 6 7 6 5 5 4 4 4 4 3 4 4 4 4 5 5 5 6 8 9 9 9 10 11 11 11 11 10 10 9 10 10 12 13 10 7 3 4 7 9 9 10
6 7 6 5 5 5 5 5 4 4 4 4 4 5 5 5 4 6 7 8 9 10 10 10 10 10 12 11 10 10 10 10 10 10 12 11 8 4 6 6 9 8 8
6 6 6 5 6 6 6 6 5 5 5 5 5 6 6 5 8 10 9 8 8 9 10 10 9 9 10 14 16 16 15 13 12 11 12 13 13 10 7 7 8 7 8
6 6 6 6 6 7 6 6 6 6 6 6 6 6 7 8 11 11 10 9 9 9 9 9 8 7 9 10 12 15 15 17 18 14 15 15 13 9 7 9 9 9 9
5 5 6 6 6 6 6 6 7 6 6 7 7 7 8 9 11 12 12 9 9 9 9 9 10 10 8 10 10 11 11 11 12 11 12 13 12 9 8 9 9 7 4
5 5 6 6 6 6 7 7 7 7 7 7 7 8 8 9 11 13 12 7 8 9 8 9 9 10 12 13 11 12 12 10 12 14 14 15 15 14 10 6 5 5 5
4 5 5 5 5 6 7 7 6 7 7 8 8 8 8 9 11 13 12 6 7 8 7 7 8 9 13 14 10 10 12 11 8 8 9 10 9 8 9 7 5 5 4
4 5 5 5 6 6 7 6 7 7 8 8 9 8 7 8 10 12 12 6 7 8 8 7 7 11 14 14 13 9 12 11 8 7 7 6 5 4 3 3 3 4 4
5 5 6 6 6 5 7 7 7 7 8 8 8 9 6 6 7 10 13 12 11 8 8 7 8 12 14 14 11 11 13 10 6 5 5 5 4 3 3 2 2 2 2
5 6 6 6 6 5 6 7 7 6 6 7 7 8 8 6 7 11 12 13 12 8 7 11 12 13 12 9 9 10 7 5 4 4 4 4 3 3 2 1 2 2 3
5 6 6 7 7 6 5 5 6 6 7 7 7 8 8 8 7 6 6 6 7 7 6 7 9 9 7 7 6 5 4 4 4 4 3 3 2 2 2 1 1 1 1
5 6 6 6 7 7 7 6 8 8 8 9 8 8 9 9 9 12 10 7 6 6 6 5 4 4 4 3 4 4 3 3 3 3 2 2 2 2 2 2 1 1 1
5 5 5 6 6 6 8 8 10 12 14 15 15 13 10 13 17 16 15 13 12 10 6 4 4 3 3 3 3 3 3 3 3 3 2 2 2 2 1 2 1 1 1
5 6 5 6 6 6 7 8 9 8 10 12 12 13 13 14 14 14 13 11 8 6 4 3 3 3 3 3 3 3 3 3 3 3 2 2 2 2 1 1 1 1 1
5 6 6 6 6 7 7 7 7 8 9 7 7 10 11 11 11 10 10 7 3 2 2 2 2 2 2 2 2 2 2 3 3 3 3 3 2 2 1 1 1 1 1
5 5 5 6 6 7 7 7 7 8 8 8 6 6 7 9 8 8 7 3 3 2 2 2 1 1 1 1 2 2 2 2 2 2 2 3 2 2 2 2 2 2 1
4 6 7 6 6 6 6 7 7 7 7 7 6 6 5 5 4 4 4 3 2 2 2 1 1 1 1 1 1 1 1 1 2 2 2 2 2 2 1 1 1 1 1
4 5 6 6 6 6 6 7 7 7 7 6 6 6 8 5 4 4 3 2 2 2 2 1 1 1 1 1 1 1 1 1 1 1 1 2 2 2 1 1 1 1 1
4 5 5 5 5 6 6 6 6 7 7 7 5 5 6 3 3 3 2 2 2 2 2 2 1 1 1 1 1 1 1 1 1 1 1 1 1 1 1 1 1 0 0
4 5 5 5 5 6 6 6 6 6 6 5 5 4 3 3 3 3 2 2 2 2 2 2 2 1 1 1 2 2 2 2 1 1 1 1 1 1 1 0 0 1 0
4 5 5 5 5 5 6 6 5 5 5 5 4 4 4 3 3 3 3 2 2 2 2 2 2 3 3 2 2 2 2 2 2 2 2 2 1 1 1 1 1 1 1
4 4 5 5 5 5 5 6 6 5 5 5 4 4 4 4 4 4 3 3 3 3 4 4 3 3 5 5 4 4 4 4 3 2 2 2 2 2 2 2 2 2 2
4 4 5 4 5 5 5 6 6 6 5 5 5 5 5 5 5 4 4 4 4 4 4 4 5 6 6 5 6 7 7 7 6 5 4 3 3 3 3 3 3 3 3
Wind_Direction
77 81 82 77 75 74 69 54 33 19 2 339 321 306 295 288 282 273 268 270 264 262 255 251 252 249 248 243 238 237 239 242 265 275 265 254 227 233 237 237 241 243 244
75 78 77 73 70 66 58 46 33 21 6 349 331 315 306 297 290 282 278 275 271 270 269 267 265 261 255 252 247 244 244 241 255 273 273 259 241 237 240 240 240 240 243
71 74 70 63 58 54 44 35 26 13 0 350 335 319 309 302 295 288 284 281 276 275 275 274 273 271 267 263 259 257 256 253 251 264 273 265 253 229 233 241 245 246 245
68 67 60 48 42 38 32 25 16 4 354 343 331 317 308 302 295 296 291 287 282 280 277 275 275 272 270 270 267 264 263 263 260 263 271 272 258 223 222 241 247 239 244
68 62 51 40 34 30 22 13 4 355 346 335 325 318 311 302 300 304 297 290 287 285 281 277 275 273 271 270 270 270 268 266 265 265 269 273 264 231 234 233 249 252 244
64 55 39 28 24 19 9 359 354 349 344 336 327 318 312 304 305 303 300 293 288 285 285 284 283 277 274 272 269 269 267 267 269 267 269 268 270 262 254 242 247 251 255
60 46 30 19 14 6 356 353 349 340 334 326 318 313 305 303 307 305 299 292 285 282 284 286 286 281 278 281 280 278 273 267 265 268 271 272 278 276 267 257 247 247 254
56 38 22 13 3 352 347 342 336 327 321 313 309 305 300 299 304 305 303 292 286 284 283 284 286 287 284 285 286 283 279 275 273 268 269 275 278 279 265 261 259 252 257
41 22 8 358 347 340 334 328 325 319 312 307 302 300 296 297 302 304 305 295 287 288 288 285 283 287 289 290 287 285 285 283 283 276 273 274 276 276 274 268 252 249 257
18 357 346 340 330 322 317 315 312 307 300 301 295 292 289 291 297 301 302 291 290 292 292 285 279 282 291 294 288 286 288 292 291 288 282 281 280 277 274 266 256 250 259
350 332 328 328 318 308 307 305 304 303 301 297 293 291 286 284 292 297 298 293 290 293 293 294 293 295 297 297 293 285 286 293 290 288 290 289 287 286 285 281 270 258 256
337 326 323 320 315 311 307 304 302 302 299 299 299 299 293 289 287 295 296 293 292 288 290 293 295 300 301 300 298 291 293 294 289 289 290 293 297 303 315 325 334 336 331
328 320 317 316 311 309 306 306 305 300 294 296 296 296 299 299 295 296 293 292 291 287 282 286 293 299 303 302 303 304 302 292 287 289 294 301 312 322 330 350 39 57 53
322 320 318 316 313 310 301 293 291 290 288 288 289 291 294 295 296 300 296 294 290 287 286 287 289 292 297 303 308 313 311 307 300 298 303 310 318 326 339 351 11 61 65
318 312 312 308 306 305 296 284 282 272 269 278 282 284 289 292 296 300 298 293 291 287 291 286 284 291 299 311 321 326 327 328 324 319 315 322 334 347 0 10 14 22 43
312 311 308 304 301 297 298 295 280 276 282 280 278 280 282 284 295 296 294 290 290 286 281 275 281 288 297 309 317 325 335 340 337 334 337 342 343 350 7 19 24 39 63
298 299 298 295 293 293 294 296 301 299 288 289 289 289 290 295 298 301 299 294 290 283 271 269 274 283 293 304 313 320 329 340 340 344 353 358 1 8 17 24 37 56 64
290 287 284 286 288 288 287 287 288 293 300 297 303 307 308 308 309 313 313 303 290 297 276 270 274 283 294 309 322 331 340 346 353 358 4 8 9 17 28 32 36 43 52
288 285 285 286 286 285 283 283 282 282 284 290 296 303 316 314 315 326 329 301 285 282 284 281 285 290 303 316 330 340 346 354 2 3 10 13 10 21 42 39 43 51 38
278 283 288 288 287 286 284 282 282 281 283 285 288 298 312 310 303 317 325 313 298 290 291 289 296 307 310 317 327 336 346 3 8 13 13 11 8 17 48 51 40 33 30
288 290 287 285 282 284 286 283 283 282 281 283 287 298 307 305 300 303 307 312 309 302 301 301 305 309 317 322 323 319 333 355 360 358 3 8 9 12 17 25 39 38 51
282 286 288 287 287 286 287 286 284 282 283 285 291 301 312 311 301 299 301 307 312 311 308 297 288 292 293 292 290 288 286 299 320 329 343 351 349 357 1 14 12 22 88
285 289 290 288 287 288 287 286 287 286 286 287 290 294 299 297 294 294 296 301 304 303 303 292 282 284 292 289 287 277 267 268 278 281 272 274 287 293 287 268 240 274 259
284 287 290 293 293 292 292 293 291 289 288 287 286 286 287 288 287 285 285 285 284 282 279 273 268 267 273 279 278 275 274 275 273 261 251 243 243 250 245 238 243 234 229
282 285 288 290 292 292 292 292 291 289 287 284 284 284 285 284 280 278 276 272 271 270 269 268 264 262 262 263 264 265 265 266 256 240 232 228 225 226 227 229 227 220 216
281 283 284 284 284 285 286 287 287 287 285 284 282 281 281 278 276 274 272 268 267 267 268 264 259 260 263 263 262 261 258 253 241 227 221 219 217 218 211 218 220 221 216